Regional Weather Roundup
Issued by NWS Boston, MA

Home | Current Version | Previous Version | Text Only | Print | Product List | Glossary On
Versions: 1 2 3 4 5 6 7 8 9 10 11 12 13 14 15 16 17 18 19 20 21 22 23 24 25 26 27 28
000
ASUS41 KBOX 311410
RWRBOX

REGIONAL WEATHER ROUNDUP
NATIONAL WEATHER SERVICE TAUNTON MA
1000 AM EDT WED AUG 31 2016

NOTE:  "FAIR" INDICATES FEW OR NO CLOUDS BELOW 12,000 FEET WITH NO
SIGNIFICANT WEATHER AND/OR OBSTRUCTIONS TO VISIBILITY.

MAZALL-311500-
EASTERN MASSACHUSETTS

CITY           SKY/WX    TMP DP  RH WIND       PRES   REMARKS
BOSTON         CLOUDY    76  66  71 SW13      29.96S
BEVERLY        CLOUDY    75  65  70 W7        29.96R
LAWRENCE       PTSUNNY   74  64  71 SW9       29.97F
BEDFORD        CLOUDY    75  63  66 W6        29.96R
BLUE HILL        N/A     73  66  78 SW9G21    29.98S
NORWOOD        MOSUNNY   76  67  73 SW9       29.96F
MARSHFIELD     CLOUDY    75  70  83 SW10      29.97S
PLYMOUTH       CLOUDY    77  68  73 SW12      29.99F
TAUNTON        PTSUNNY   76  68  76 SW8G16    29.98F
NEW BEDFORD    CLOUDY    76  69  79 SW9       29.98F
$$

MAZALL-311500-
CAPE COD AND THE ISLANDS

CITY           SKY/WX    TMP DP  RH WIND       PRES   REMARKS
FALMOUTH         N/A     75  68  78 SW15G21     N/A
HYANNIS        CLOUDY    77  68  73 SW15      29.98F
CHATHAM        CLOUDY    78  69  73 SW13G18   30.01S
PROVINCETOWN   PTSUNNY   74  69  85 SW13      29.99S
NANTUCKET      CLOUDY    73  68  84 SW9       30.01S
MARTHAS VNYRD  CLOUDY    78  69  73 SW9       30.00S
$$

MAZALL-311500-
CENTRAL AND WESTERN MASSACHUSETTS

CITY           SKY/WX    TMP DP  RH WIND       PRES   REMARKS
WORCESTER      CLOUDY    71  62  73 SW10      30.00S
FITCHBURG      CLOUDY    75  62  64 W7        29.98S
ORANGE         CLOUDY    68  62  81 CALM      29.99F
SPRINGFIELD    CLOUDY    75  65  72 S6        29.97S
WESTFIELD      MOSUNNY   73  65  75 SW5       29.98S
NORTH ADAMS    CLOUDY    67  60  78 SE6       29.99F
PITTSFIELD     CLOUDY    65  60  84 CALM      30.00F
$$

RIZALL-311500-
RHODE ISLAND

CITY           SKY/WX    TMP DP  RH WIND       PRES   REMARKS
PROVIDENCE     CLOUDY    76  68  76 SW9       29.99F
NEWPORT        CLOUDY    75  70  84 VRB3      30.00S
BLOCK ISLAND   MOSUNNY   78  70  76 SW12      30.01S
SMITHFIELD     CLOUDY    74  69  85 W6        30.00S
WESTERLY       CLOUDY    77  69  76 SW7       30.00F
$$

CTZALL-311500-
CONNECTICUT

CITY           SKY/WX    TMP DP  RH WIND       PRES   REMARKS
BRADLEY INTL   CLOUDY    75  66  73 SW7       29.98F
HARTFORD       CLOUDY    78  68  71 SW5       29.98F
BRIDGEPORT     MOSUNNY   80  71  74 SW10      29.99S
DANBURY        PTSUNNY   73  67  81 SW8       30.02S
GROTON         CLOUDY    79  72  79 SW12      29.98F
NEW HAVEN      CLOUDY    77  71  82 W7        29.99S
CHESTER        FAIR      77  70  78 VRB7      30.00S
MERIDEN        MOSUNNY   78  68  71 W7        29.99S
WILLIMANTIC    CLOUDY    75  69  81 CALM      30.00S
OXFORD         PTSUNNY   73  66  78 CALM      30.03S
$$

MEZ002-015-021-024-NHZ003-005-008-011-012-014-VTZ005-008-311500-
NORTHERN NEW ENGLAND

CITY           SKY/WX    TMP DP  RH WIND       PRES   REMARKS
PORTLAND ME    CLOUDY    72  59  63 SW6       29.93F
BANGOR ME      CLOUDY    69  62  78 SW6       29.90F
CONCORD NH     PTSUNNY   71  59  65 CALM      29.96F
MANCHESTER NH  CLOUDY    72  59  63 SW3       29.95S
NASHUA NH      CLOUDY    73  63  70 VRB3      29.96F
PORTSMOUTH NH  PTSUNNY   73  60  63 W7        29.94S
JAFFREY NH     CLOUDY    67  60  78 S7        30.00S
KEENE NH       NOT AVBL
BURLINGTON VT  CLOUDY    69  60  73 S12       29.92
MT. WASHINGTON LGT RAIN  48  48 100 W41         N/A  VSB 0
$$

NYZ052-076-311500-
EASTERN NEW YORK

CITY           SKY/WX    TMP DP  RH WIND       PRES   REMARKS
ALBANY         CLOUDY    70  62  76 S7        29.97F
NEW YORK CITY  PTSUNNY   81  68  64 SW10      29.99S
$$

ANZALL-311500-
MARINE OBSERVATIONS

STATION/POSITION TIME  TEMP    WIND        PRES    VSBY  WAVE
                       AIR SEA DIR/SP/G                  HT/PER
                 (UTC) (F)     (DEG/KT/KT) (MB)    (MI)  (FT/S)
BOSTON BUOY      1350   69 68  200/  6/  8 1014.4F         2/11
BUZZARDS BAY     1300   72     230/  9/  9 1016.4S
NANTUCKET SOUND  1350   74 75  230/ 12/ 14 1015.7S         1/11
MASS BAY-STELLWA 1304   67 66  230/ 10/ 12 1014.0F  1 7/8  2/10
ISLE OF SHOALS   1300   66     210/ 14/ 14 1014.0R
S OF BLOCK IS    1355      75                N/A           4/11
$$

......................KEY.........................
  SKY/WX - SKY CONDITION/PRESENT WEATHER
  TMP    - TEMPERATURE IN FAHRENHEIT
  DWPT   - DEWPOINT IN FAHRENHEIT
  RH     - RELATIVE HUMIDITY IN PERCENT
  WIND   - DIRECTION AND SPEED IN MPH
  PRES   - MEAN SEA LEVEL PRESSURE IN INCHES OF HG
  WCI    - WIND CHILL INDEX
  VSB    - VISIBILITY IN MILES
  HX     - HEAT INDEX
  TC     - TEMPERATURE IN CELSIUS
  VRB    - VARIABLE WIND DIRECTION
  N/A    - NOT AVAILABLE




USA.gov is the U.S. government's official web portal to all federal, state and local government web resources and services.